This demonstration page uses our WeatherBlox Daily Observations layout. Learn more.

Left ArrowRight Arrow

Hourly Observations for May 7, 2020

Temp ( °F °C ) Dew Point ( °F °C ) Humidity (%) Winds ( mph kmh ) Pressure ( in mb ) Visibility ( mi km ) Precip ( " mm )
12:53 am 00:53 Clear 39 3.9 32 undefined 76 76 N N/A 30.05 1018 10 16.0934 N/A
1:53 am 01:53 Clear 37 2.8 31 -0.6 79 79 N N/A 30.06 1018 10 16.0934 N/A
2:53 am 02:53 Clear 37 2.8 33 0.6 86 86 N N/A 30.05 1018 10 16.0934 N/A
3:53 am 03:53 Clear 36 2.2 33 0.6 89 89 N N/A 30.05 1018 10 16.0934 N/A
4:53 am 04:53 Clear 35 1.7 33 0.6 93 93 N N/A 30.05 1018 10 16.0934 N/A
5:53 am 05:53 Clear 34 1.1 32 undefined 92 92 N N/A 30.06 1018 10 16.0934 N/A
6:53 am 06:53 Sunny 35 1.7 33 0.6 93 93 N N/A 30.06 1018 10 16.0934 N/A
7:53 am 07:53 Sunny 40 4.4 35 1.7 83 83 N N/A 30.07 1018 10 16.0934 N/A
8:53 am 08:53 Sunny 49 9.4 34 1.1 56 56 VRB 6 9 30.06 1018 10 16.0934 N/A
9:53 am 09:53 Sunny 53 11.7 38 3.3 57 57 WSW 6 9 30.06 1018 N/A N/A
10:53 am 10:53 Sunny 59 15 41 5 51 51 VRB 3 6 30.04 1017 10 16.0934 N/A
11:53 am 11:53 Sunny 64 17.8 42 5.6 45 45 WSW 6 9 30.04 1017 10 16.0934 N/A
12:53 pm 12:53 Partly Cloudy 64 17.8 38 3.3 38 38 WSW 10 17 30.01 1016 10 16.0934 N/A
1:53 pm 13:53 Mostly Cloudy 64 17.8 38 3.3 38 38 WSW 10 17 29.99 1016 10 16.0934 N/A
2:53 pm 14:53 Mostly Cloudy 67 19.4 37 2.8 33 33 W 13 20 29.98 1015 10 16.0934 N/A
3:53 pm 15:53 Mostly Cloudy 65 18.3 36 2.2 34 34 W 10 17 29.97 1015 10 16.0934 N/A
4:53 pm 16:53 Mostly Cloudy 67 19.4 38 3.3 35 35 W 13 20 29.97 1015 10 16.0934 N/A
5:53 pm 17:53 Mostly Cloudy 65 18.3 37 2.8 36 36 W 10 17 29.96 1014 10 16.0934 N/A
6:53 pm 18:53 Mostly Cloudy 65 18.3 38 3.3 37 37 W 13 20 29.94 1014 10 16.0934 N/A
7:53 pm 19:53 Mostly Cloudy 63 17.2 39 3.9 41 41 W 8 13 29.94 1014 10 16.0934 N/A
8:53 pm 20:53 Cloudy 60 15.6 42 5.6 52 52 WSW 5 7 29.95 1014 10 16.0934 N/A
9:53 pm 21:53 Partly Cloudy 53 11.7 44 6.7 72 72 N N/A 29.95 1014 10 16.0934 N/A
10:53 pm 22:53 Cloudy 52 11.1 44 6.7 75 75 N N/A 29.95 1014 10 16.0934 N/A
11:53 pm 23:53 Cloudy 51 10.6 46 7.8 83 83 N N/A 29.93 1014 10 16.0934 N/A

Powered by AerisWeather